SUMZM MBPV-MBGT

Flight info

Callsign SUMZM
Flight time 0h 26m
Altitude 13000
Route WESNA DCT MBNC DCT MAYAG DCT MBSC
Aircraft PC12/L-SDFGRWY/S

Departure

Time 2026-05-07 15:02
Airport Providenciales International Airport (MBPV)

Arrival

Time 2026-05-07 15:29
Airport JAGS McCartney International Airport (MBGT)
Time Latitude Longitude Altitude Speed Heading
2026-05-07 14:49 21.77560 -72.27032 38 ft 0 kts
2026-05-07 14:59 21.77584 -72.27007 38 ft 8 kts 91°
2026-05-07 15:00 21.77555 -72.26959 38 ft 8 kts 176°
2026-05-07 15:00 21.77526 -72.27004 38 ft 10 kts 272°
2026-05-07 15:00 21.77521 -72.27056 38 ft 11 kts 239°
2026-05-07 15:00 21.77510 -72.27147 38 ft 14 kts 273°
2026-05-07 15:01 21.77467 -72.27202 36 ft 0 kts 182°
2026-05-07 15:01 21.77454 -72.27202 36 ft 5 kts 182°
2026-05-07 15:01 21.77408 -72.27199 34 ft 14 kts 150°
2026-05-07 15:01 21.77387 -72.27156 33 ft 0 kts 92°
2026-05-07 15:02 21.77379 -72.26994 34 ft 52 kts 91°
2026-05-07 15:02 21.77357 -72.26428 104 ft 89 kts 97°
2026-05-07 15:02 21.77329 -72.25724 401 ft 97 kts 94°
2026-05-07 15:02 21.77271 -72.24990 727 ft 106 kts 103°
2026-05-07 15:03 21.77121 -72.24058 876 ft 138 kts 102°
2026-05-07 15:03 21.76929 -72.22992 1242 ft 153 kts 104°
2026-05-07 15:03 21.76689 -72.21800 1613 ft 175 kts 105°
2026-05-07 15:03 21.76400 -72.20473 1971 ft 187 kts 105°
2026-05-07 15:04 21.76083 -72.19085 2360 ft 194 kts 106°
2026-05-07 15:04 21.75738 -72.17625 2722 ft 206 kts 105°
2026-05-07 15:04 21.75387 -72.16169 3084 ft 203 kts 106°
2026-05-07 15:04 21.75030 -72.14705 3440 ft 201 kts 106°
2026-05-07 15:05 21.74992 -72.13235 3799 ft 201 kts 75°
2026-05-07 15:05 21.75810 -72.12009 4171 ft 206 kts 42°
2026-05-07 15:05 21.76914 -72.11043 4534 ft 205 kts 44°
2026-05-07 15:05 21.77938 -72.09971 4915 ft 205 kts 49°
2026-05-07 15:06 21.78903 -72.08836 5274 ft 206 kts 50°
2026-05-07 15:06 21.79863 -72.07703 5641 ft 205 kts 50°
2026-05-07 15:06 21.80838 -72.06575 5998 ft 205 kts 49°
2026-05-07 15:06 21.81816 -72.05447 6373 ft 207 kts 49°
2026-05-07 15:07 21.82798 -72.04313 6725 ft 208 kts 49°
2026-05-07 15:07 21.83784 -72.03173 7077 ft 209 kts 49°
2026-05-07 15:07 21.84780 -72.02022 7430 ft 209 kts 49°
2026-05-07 15:07 21.85773 -72.00874 7794 ft 210 kts 48°
2026-05-07 15:08 21.86769 -71.99724 8147 ft 210 kts 48°
2026-05-07 15:08 21.87753 -71.98588 8511 ft 210 kts 48°
2026-05-07 15:08 21.88755 -71.97429 8879 ft 211 kts 47°
2026-05-07 15:08 21.89740 -71.96257 9254 ft 211 kts 53°
2026-05-07 15:09 21.90385 -71.94851 9627 ft 211 kts 74°
2026-05-07 15:09 21.90526 -71.93285 10012 ft 212 kts 95°
2026-05-07 15:09 21.90141 -71.91757 10357 ft 212 kts 115°
2026-05-07 15:09 21.89322 -71.90431 10706 ft 212 kts 127°
2026-05-07 15:10 21.88435 -71.89155 11057 ft 214 kts 127°
2026-05-07 15:10 21.87548 -71.87868 11410 ft 215 kts 127°
2026-05-07 15:10 21.86648 -71.86564 11774 ft 218 kts 127°
2026-05-07 15:10 21.85742 -71.85252 12142 ft 219 kts 127°
2026-05-07 15:11 21.84825 -71.83924 12412 ft 224 kts 127°
2026-05-07 15:11 21.83881 -71.82559 12661 ft 229 kts 128°
2026-05-07 15:11 21.82926 -71.81176 12911 ft 232 kts 127°
2026-05-07 15:11 21.81959 -71.79777 13009 ft 241 kts 128°
2026-05-07 15:12 21.80939 -71.78301 13008 ft 250 kts 127°
2026-05-07 15:12 21.79884 -71.76775 13001 ft 257 kts 127°
2026-05-07 15:12 21.78808 -71.75218 13006 ft 260 kts 128°
2026-05-07 15:12 21.77721 -71.73645 13009 ft 264 kts 128°
2026-05-07 15:13 21.76617 -71.72049 13005 ft 266 kts 127°
2026-05-07 15:13 21.75509 -71.70448 13005 ft 266 kts 127°
2026-05-07 15:13 21.74386 -71.68862 13004 ft 266 kts 129°
2026-05-07 15:13 21.73232 -71.67295 13008 ft 267 kts 129°
2026-05-07 15:14 21.72100 -71.65745 12998 ft 267 kts 128°
2026-05-07 15:14 21.70966 -71.64172 12929 ft 263 kts 129°
2026-05-07 15:14 21.69890 -71.62681 12601 ft 244 kts 129°
2026-05-07 15:14 21.68881 -71.61287 12274 ft 226 kts 128°
2026-05-07 15:15 21.67945 -71.59995 11957 ft 213 kts 128°
2026-05-07 15:15 21.67054 -71.58763 11639 ft 204 kts 128°
2026-05-07 15:15 21.66200 -71.57584 11314 ft 197 kts 128°
2026-05-07 15:15 21.65375 -71.56444 11021 ft 191 kts 128°
2026-05-07 15:16 21.64569 -71.55333 10715 ft 185 kts 128°
2026-05-07 15:16 21.63785 -71.54250 10409 ft 181 kts 128°
2026-05-07 15:16 21.63021 -71.53196 10108 ft 177 kts 128°
2026-05-07 15:16 21.62270 -71.52160 9787 ft 174 kts 128°
2026-05-07 15:17 21.61540 -71.51154 9437 ft 173 kts 128°
2026-05-07 15:17 21.60802 -71.50135 9060 ft 173 kts 128°
2026-05-07 15:17 21.60066 -71.49120 8701 ft 173 kts 128°
2026-05-07 15:17 21.59325 -71.48100 8330 ft 172 kts 128°
2026-05-07 15:18 21.58593 -71.47090 7968 ft 171 kts 128°
2026-05-07 15:18 21.57861 -71.46081 7610 ft 170 kts 128°
2026-05-07 15:18 21.57137 -71.45085 7255 ft 169 kts 127°
2026-05-07 15:18 21.56416 -71.44091 6909 ft 168 kts 127°
2026-05-07 15:19 21.55699 -71.43104 6550 ft 167 kts 127°
2026-05-07 15:19 21.54987 -71.42123 6194 ft 165 kts 127°
2026-05-07 15:19 21.54281 -71.41152 5828 ft 164 kts 127°
2026-05-07 15:19 21.53591 -71.40202 5471 ft 163 kts 127°
2026-05-07 15:20 21.52889 -71.39235 5106 ft 161 kts 127°
2026-05-07 15:20 21.52213 -71.38305 4753 ft 159 kts 127°
2026-05-07 15:20 21.51541 -71.37380 4432 ft 154 kts 127°
2026-05-07 15:20 21.50914 -71.36519 4110 ft 138 kts 128°
2026-05-07 15:21 21.50360 -71.35756 3800 ft 123 kts 128°
2026-05-07 15:21 21.49848 -71.35052 3491 ft 117 kts 127°
2026-05-07 15:21 21.49351 -71.34361 3260 ft 117 kts 125°
2026-05-07 15:21 21.49082 -71.33562 3072 ft 114 kts 105°
2026-05-07 15:22 21.48887 -71.32715 2902 ft 118 kts 105°
2026-05-07 15:22 21.48682 -71.31853 2732 ft 120 kts 107°
2026-05-07 15:22 21.48472 -71.30978 2562 ft 121 kts 107°
2026-05-07 15:22 21.48266 -71.30119 2424 ft 120 kts 107°
2026-05-07 15:23 21.48058 -71.29253 2294 ft 119 kts 107°
2026-05-07 15:23 21.47853 -71.28394 2171 ft 119 kts 108°
2026-05-07 15:23 21.47647 -71.27535 2055 ft 118 kts 107°
2026-05-07 15:23 21.47442 -71.26683 1936 ft 117 kts 107°
2026-05-07 15:24 21.47238 -71.25831 1812 ft 117 kts 107°
2026-05-07 15:24 21.47035 -71.24986 1705 ft 117 kts 107°
2026-05-07 15:24 21.46846 -71.24191 1716 ft 99 kts 107°
2026-05-07 15:24 21.46707 -71.23528 1483 ft 90 kts 106°
2026-05-07 15:25 21.46592 -71.22898 1421 ft 85 kts 105°
2026-05-07 15:25 21.46466 -71.22277 1412 ft 85 kts 105°
2026-05-07 15:25 21.46343 -71.21650 1370 ft 84 kts 105°
2026-05-07 15:25 21.46202 -71.21049 1263 ft 86 kts 107°
2026-05-07 15:26 21.46071 -71.20406 1129 ft 90 kts 107°
2026-05-07 15:26 21.45917 -71.19751 953 ft 93 kts 110°
2026-05-07 15:26 21.45683 -71.19107 809 ft 95 kts 114°
2026-05-07 15:26 21.45624 -71.18874 778 ft 93 kts 107°
2026-05-07 15:27 21.45552 -71.18494 737 ft 86 kts 106°
2026-05-07 15:27 21.45385 -71.17884 636 ft 84 kts 108°
2026-05-07 15:27 21.45232 -71.17262 426 ft 90 kts 105°
2026-05-07 15:28 21.45072 -71.16650 342 ft 80 kts 109°
2026-05-07 15:28 21.44941 -71.16086 271 ft 79 kts 109°
2026-05-07 15:28 21.44780 -71.15530 174 ft 77 kts 110°
2026-05-07 15:28 21.44631 -71.14955 61 ft 78 kts 108°
2026-05-07 15:29 21.44516 -71.14463 15 ft 58 kts 110°
2026-05-07 15:29 21.44445 -71.14176 15 ft 30 kts 101°
2026-05-07 15:29 21.44390 -71.14003 15 ft 20 kts 124°
2026-05-07 15:29 21.44402 -71.13979 17 ft 14 kts 272°
2026-05-07 15:30 21.44428 -71.14125 15 ft 25 kts 283°
2026-05-07 15:30 21.44478 -71.14338 15 ft 30 kts 285°
2026-05-07 15:30 21.44498 -71.14503 15 ft 22 kts 237°
2026-05-07 15:30 21.44418 -71.14539 15 ft 1 kts 194°
2026-05-07 15:31 21.44388 -71.14547 15 ft 6 kts 194°
2026-05-07 15:31 21.44345 -71.14569 15 ft 8 kts 231°
2026-05-07 15:31 21.44314 -71.14612 15 ft 10 kts 193°
2026-05-07 15:31 21.44270 -71.14621 15 ft 0 kts 260°
2026-05-07 15:32 21.44282 -71.14647 15 ft 0 kts 326°
2026-05-07 15:32 21.44283 -71.14648 15 ft 0 kts 325°